Regional Weather Roundup
Issued by NWS

Home | Current Version | Previous Version | Text Only | Print | Product List | Glossary Off
Versions: 1 2 3 4 5 6 7 8 9 10 11 12 13 14 15 16 17 18 19 20 21 22 23 24 25 26 27 28 29 30 31 32 33 34 35 36 37 38 39 40 41 42 43 44 45 46 47 48 49 50

000
ASUS43 KLOT 250708
RWRIL

ILLINOIS REGIONAL WEATHER ROUNDUP
NATIONAL WEATHER SERVICE CHICAGO/ROMEOVILLE IL
200 AM CDT THU MAY 25 2017

NOTE: "FAIR" INDICATES FEW OR NO CLOUDS BELOW 12,000 FEET WITH NO
SIGNIFICANT WEATHER AND/OR OBSTRUCTIONS TO VISIBILITY.

* THESE STATIONS ARE NOT UNDER NWS QUALITY CONTROL. THEY ALSO MAY NOT
  REPORT WEATHER SUCH AS PRECIPITATION OR FOG.

ILZ001-002-007-009-015-016-024-250800-
NORTHWEST ILLINOIS

CITY           SKY/WX    TMP DP  RH WIND       PRES   REMARKS
MOLINE         CLEAR     56  49  77 N7        29.62F
STERLING*      CLOUDY    55  51  86 N8        29.62F
SAVANNA*       CLOUDY    55  49  82 N6        29.63F
$$

ILZ003-004-008-010-011-017-018-250800-
NORTH CENTRAL ILLINOIS

CITY           SKY/WX    TMP DP  RH WIND       PRES   REMARKS
ROCKFORD       CLOUDY    55  50  83 N12G20    29.63S
FREEPORT*      CLOUDY    53  49  89 N9        29.64F
ROCHELLE*      CLOUDY    53  51  94 N13       29.61S
DE KALB*       CLOUDY    53  51  93 N14       29.59S
PERU*          MOCLDY    52  49  90 N13       29.60S
$$

ILZ005-006-012>014-019>023-250800-
NORTHEAST ILLINOIS

CITY           SKY/WX    TMP DP  RH WIND       PRES   REMARKS
CHICAGO-OHARE  CLOUDY    56  50  80 N10       29.54F
CHICAGO-MIDWAY CLOUDY    55  51  86 N8        29.53F
AURORA         CLOUDY    56  52  86 N14       29.56F
LANSING*       CLOUDY    52  51  98 N6        29.53F
JOLIET*        CLOUDY    56  53  90 N5        29.54F
WAUKEGAN       CLOUDY    53  50  89 N7        29.56F
DUPAGE AIRPORT CLOUDY    55  52  89 N12       29.55F
KANKAKEE*      CLOUDY    54  53  97 NW9       29.53F
WHEELING       CLOUDY    54  52  93 N10       29.56F
MORRIS*        CLOUDY    55  52  87 CALM      29.54S
ROMEOVILLE*    CLOUDY    54  53  95 N6        29.54F
NORTHERLY ISL    N/A     55  50  83 N12         N/A
$$

LMZ740>746-250800-
SOUTHERN LAKE MICHIGAN

STATION/POSITION SKY/WX   TEMP    WIND        PRES    VSBY  WAVE
                          AIR SEA DIR/SP/G                  HT/PER
                          (F)     (DEG/KT/KT) (MB)    (MI)  (FT/S)
SOUTHERN BUOY              47 45  360/ 10/ 12 1000.7          3/ 6
WILMETTE HARBOR            50 52                N/A           5/ 5
HARRISON CRIB              52     350/ 25/ 28   N/A
BURNHAM HARBOR             54     340/ 14       N/A
CALUMET HARBOR             52     330/ 12/ 17  999.8F
BURNS HARBOR               49     340/ 18/ 20  999.7F
MICHIGAN CITY              50     340/ 21/ 22   N/A
MICHIGAN CITY 6N           50 52  350/ 16/ 19   N/A           5/ 5
ST. JOSEPH                 56 56   40/ 16/ 19  998.9          5/ 5
$$

ILZ025>027-034>036-040-047-049-050-058-095>099-250800-
WEST-CENTRAL ILLINOIS

CITY           SKY/WX    TMP DP  RH WIND       PRES   REMARKS
QUINCY         CLEAR     52  50  93 NW6       29.64S
GALESBURG*     MOCLDY    53  50  90 N7        29.62S
MACOMB*        CLEAR     52  51  95 N7        29.64F
JACKSONVILLE*  CLEAR     54  52  94 NW7       29.62R
PITTSFIELD*    CLEAR     54  52  93 NW5       29.64S
$$

ILZ028>032-037-038-041>044-048-051>054-059>061-250800-
CENTRAL ILLINOIS

CITY           SKY/WX    TMP DP  RH WIND       PRES   REMARKS
PONTIAC        CLOUDY    55  55  97 NW9       29.57S FOG
BLOOMINGTON    CLOUDY    55  52  89 N16       29.57S
DECATUR        CLOUDY    57  53  86 NW14      29.56S
PEORIA         MOCLDY    54  52  93 N7        29.60S
LACON*         CLOUDY    55  52  92 N8        29.59S
LINCOLN*       CLOUDY    57  55  93 NW5       29.58S
SPRINGFIELD    CLOUDY    58  54  86 NW14      29.59F
TAYLORVILLE    CLOUDY    56  54  92 NW9       29.58S
$$

ILZ033-039-045-046-055>057-062-063-250800-
EAST-CENTRAL ILLINOIS

CITY           SKY/WX    TMP DP  RH WIND       PRES   REMARKS
CHAMPAIGN      CLOUDY    57  53  86 NW16      29.53R
RANTOUL*       CLOUDY    58  55  92 N17       29.53R
MATTOON        CLOUDY    57  56  96 NW13      29.53S
PARIS*         CLOUDY    56  55  95 NW12      29.51F
$$

ILZ079-100>102-250800-
SOUTHWEST ILLINOIS

CITY           SKY/WX    TMP DP  RH WIND       PRES   REMARKS
ALTON          CLEAR     53  51  94 W8        29.62R
BELLEVILLE     CLEAR     56  52  88 NW7       29.61F
CAHOKIA*       CLEAR     56  51  84 NW9       29.62S
SPARTA*        PTCLDY    54  51  87 CALM      29.62S
$$

ILZ064>066-069>071-074>076-080>082-084>086-088>090-092>094-250800-
SOUTH-CENTRAL ILLINOIS

CITY           SKY/WX    TMP DP  RH WIND       PRES   REMARKS
CARBONDALE     CLEAR     56  52  86 W7        29.60S
CAIRO*         MOCLDY    57  51  81 W8        29.62S
EFFINGHAM*     CLOUDY    58  57  96 W9        29.57S
MARION         PTCLDY    59  54  82 CALM      29.60S
MT. VERNON       N/A     57  55  93 VRB3      29.58R
CENTRALIA*     MOCLDY    58  55  92 NW10      29.58S
SALEM*         CLOUDY    58  55  87 NW9       29.58S
METROPOLIS*    CLOUDY    59  51  75 W7        29.60F
$$

ILZ067-068-072-073-078-083-087-091-250800-
SOUTHEAST ILLINOIS

CITY           SKY/WX    TMP DP  RH WIND       PRES   REMARKS
LAWRENCEVILLE  CLOUDY    59  57  93 NW16      29.51F FOG
FLORA*         CLOUDY    60  56  88 NW9       29.56S
FAIRFIELD*     CLOUDY    58  57  97 CALM      29.55S
HARRISBURG*    PTCLDY    57  54  90 W8        29.58S
ROBINSON*      CLOUDY    57  55  93 NW9       29.52S
CARMI*         CLOUDY    58  56  96 W9        29.55S
$$

ABBREVIATIONS USED IN REMARKS
   TC - TEMPERATURE IN CELSIUS
  WCI - WIND CHILL INDEX
   HX - HEAT INDEX
  VSB - VISIBILITY
$$




USA.gov is the U.S. government's official web portal to all federal, state and local government web resources and services.